• Join FlightAware (Why Join?)
  • Login
  • US Flag 
05:19AM EST


 

Airport Tracker/Info


-or-


 

Live Flight TrackerFlight Track Log ✈ N84NG ✈ 01-Jan-2014 ✈ KSAF - KPWA

Flight Track Log - Related Links

Times and Time Zones

All times are in EST time to prevent confusion due to time zone crossing. See the N84NG flight status page for this flight to view local times or setup timezone preferences in your user account.

Time Position Orientation Groundspeed Altitude Reporting Facility
EST Latitude Longitude Course Direction KTS MPH feet Rate Location/Type
06:00PM 35.6436 -106.0006 80° East 231 266 10,400  Level Albuquerque Center
06:01PM 35.6450 -105.9119 89° East 252 290 14,300 2,976 Climbing Albuquerque Center
06:02PM 35.6400 -105.8108 93° East 285 328 16,500 2,049 Climbing Albuquerque Center
06:03PM 35.6419 -105.6889 89° East 340 391 18,500 2,098 Climbing Albuquerque Center
06:04PM 35.6348 -105.2765 90° East  Level Estimated
06:04PM 35.6408 -105.5372 90° East 382 440 20,800  Level Albuquerque Center
06:05PM 35.6422 -105.3881 89° East 420 483 22,800 2,000 Climbing Albuquerque Center
06:06PM 35.6453 -105.2353 89° East 438 504 24,900 2,000 Climbing Albuquerque Center
06:07PM 35.6492 -105.0808 88° East 445 512 26,900 1,951 Climbing Albuquerque Center
06:08PM 35.6508 -104.9253 89° East 449 517 28,900 2,016 Climbing Albuquerque Center
06:09PM 35.6536 -104.7708 89° East 447 514 31,000 1,951 Climbing Albuquerque Center
06:10PM 35.6542 -104.6164 90° East 447 514 32,900 976 Climbing Albuquerque Center
06:11PM 35.6567 -104.4303 89° East 457 526 33,000 49 Climbing Albuquerque Center
06:12PM 35.6586 -104.2539 89° East 495 570 33,000  Level Albuquerque Center
06:13PM 35.6600 -104.0764 89° East 508 585 33,000  Level Albuquerque Center
06:14PM 35.6608 -103.9019 90° East 505 581 33,000  Level Albuquerque Center
06:15PM 35.6619 -103.7297 89° East 499 574 33,000  Level Albuquerque Center
06:16PM 35.6622 -103.5597 90° East 493 567 33,000  Level Albuquerque Center
06:17PM 35.6622 -103.3906 90° East 490 564 33,000  Level Albuquerque Center
06:18PM 35.6625 -103.2217 90° East 490 564 33,000  Level Albuquerque Center
06:19PM 35.6619 -103.0489 90° East 497 572 33,000  Level Albuquerque Center
06:20PM 35.6611 -102.8764 90° East 510 587 33,000  Level Albuquerque Center
06:21PM 35.6611 -102.7017 90° East 512 589 33,000  Level Albuquerque Center
06:22PM 35.6606 -102.5283 90° East 509 586 33,000  Level Albuquerque Center
06:23PM 35.6592 -102.3561 91° East 506 582 33,000  Level Albuquerque Center
06:24PM 35.6581 -102.1481 90° East 506 582 33,000  Level Albuquerque Center
06:26PM 35.6556 -101.9750 91° East 504 580 33,000  Level Albuquerque Center
06:27PM 35.6539 -101.8028 91° East 502 578 33,000  Level Albuquerque Center
06:28PM 35.6522 -101.6300 91° East 502 578 33,000  Level Albuquerque Center
06:29PM 35.6497 -101.4556 91° East 505 581 33,000  Level Albuquerque Center
06:30PM 35.6472 -101.2811 91° East 506 582 33,000  Level Albuquerque Center
06:31PM 35.6439 -101.1069 91° East 508 585 33,000  Level Albuquerque Center
06:32PM 35.6411 -100.9353 91° East 504 580 33,000  Level Albuquerque Center
06:33PM 35.6375 -100.7619 91° East 505 581 33,000  Level Albuquerque Center
06:34PM 35.6331 -100.5797 92° East 504 580 33,000  Level Albuquerque Center
06:35PM 35.6286 -100.4086 92° East 502 578 33,000 -439 Level Albuquerque Center
06:36PM 35.6258 -100.2386 91° East 498 573 32,100 -976 Descending Albuquerque Center
06:37PM 35.6203 -100.0692 92° East 497 572 31,000 -537 Descending Albuquerque Center
06:38PM 35.6172 -99.9078 91° East 480 552 31,000  Level Albuquerque Center
06:39PM 35.6119 -99.7281 92° East 446 513 31,000 -390 Level Albuquerque Center
06:40PM 35.6083 -99.5725 92° East 452 520 30,200 -1,510 Descending Albuquerque Center
06:41PM 35.6003 -99.3422 92° East 481 554 27,400 -2,000 Descending Fort Worth Center
06:42PM 35.5964 -99.1872 92° East 462 532 25,400 -1,935 Descending Fort Worth Center
06:43PM 35.5919 -99.0389 92° East 443 510 23,400 -1,951 Descending Fort Worth Center
06:44PM 35.5853 -98.8839 93° East 454 522 21,400 -1,951 Descending Fort Worth Center
06:45PM 35.5808 -98.7261 92° East 464 534 19,400 -1,951 Descending Fort Worth Center
06:46PM 35.5761 -98.5731 92° East 452 520 17,400 -2,069 Descending Fort Worth Center
06:47PM 35.5675 -98.4292 94° East 415 478 15,400 -1,935 Descending Fort Worth Center
06:47PM 35.5697 -98.4292 360° North 424 488 15,400 -2,200 Level Fort Worth Center
06:48PM 35.5639 -98.3575 96° East 386 444 14,300 -2,032 Descending Fort Worth Center
06:48PM 35.5644 -98.2981 89° East 401 461 13,300 -1,967 Descending Fort Worth Center
06:49PM 35.5583 -98.2297 96° East 369 425 12,300 -2,459 Descending Fort Worth Center
06:49PM 35.5314 -98.1644 117° Southeast 369 425 10,800 -2,200 Descending Fort Worth Center
06:50PM 35.5097 -98.1319 129° Southeast 326 375 10,100 -2,323 Descending Fort Worth Center
06:50PM 35.4700 -98.0747 130° Southeast 327 376 8,400 -2,328 Descending Fort Worth Center
06:51PM 35.4533 -98.0411 121° Southeast 305 351 7,500 -2,361 Descending Fort Worth Center
06:51PM 35.4333 -97.9844 113° Southeast 296 341 6,000 -1,475 Descending Fort Worth Center
06:52PM 35.4153 -97.9469 121° Southeast 276 318 6,000 -97 Level Fort Worth Center
06:53PM 35.3978 -97.9044 117° Southeast 268 308 5,900 -98 Descending Fort Worth Center
06:53PM 35.3833 -97.8675 116° Southeast 258 297 5,900 -1,065 Level Fort Worth Center
06:54PM 35.3831 -97.8264 90° East 252 290 4,800 -2,000 Descending Fort Worth Center
06:54PM 35.3853 -97.7744 87° East 250 288 3,700 -1,869 Descending Fort Worth Center
06:55PM 35.3864 -97.7453 87° East 244 281 2,900 -689 Descending Fort Worth Center
06:55PM 35.3836 -97.7028 95° East 209 241 3,000  Climbing Fort Worth Center
06:56PM 35.3886 -97.6744 78° East 225 259 2,900  Descending Fort Worth Center
06:56PM 35.4119 -97.6569 31° Northeast 153 176 3,000  Climbing Fort Worth Center
06:57PM 35.4311 -97.6458 25° Northeast 167 192 2,900 -98 Descending Fort Worth Center
06:57PM 35.4422 -97.6464 358° North 92 106 2,900 -387 Level Fort Worth Center
06:58PM 35.4594 -97.6458 North 102 117 2,500 -500 Descending Fort Worth Center
06:58PM 35.4697 -97.6469 355° North 96 110 2,400 -581 Descending Fort Worth Center
06:59PM 35.4875 -97.6456 North 101 116 1,900 -590 Descending Fort Worth Center
06:59PM 35.4992 -97.6469 354° North 102 117 1,800 -492 Descending Fort Worth Center
07:00PM 35.5161 -97.6456 North 101 116 1,400 -649 Descending Fort Worth Center